Lid_Strength_Index
7 7 8 8 8 8 8 9 10 12 11 8 7 5 5 5 4 4 3 1 0 0 -0 -1 -1 -1 -2 -1 -0 1 3 3 1 -1 -2 -2 -2 -1
8 8 8 8 8 8 8 8 8 9 10 8 7 6 5 5 3 2 2 0 0 -0 -0 -0 -0 -1 -1 -1 0 2 3 3 1 -1 -1 -1 -2 -1
8 8 8 8 9 8 8 8 8 8 9 7 6 6 6 4 3 2 1 1 1 0 0 -0 -0 -1 -1 -1 1 3 4 3 2 -1 -1 -1 -2 -1
8 8 9 9 9 8 8 7 7 7 7 8 7 6 5 3 2 2 2 2 2 1 0 0 0 -0 -0 1 1 4 3 4 3 -1 -1 -1 -1 -1
8 9 9 9 9 8 8 8 7 7 7 7 7 6 5 3 1 2 3 3 2 1 1 0 0 -0 1 1 2 5 4 4 2 0 -0 -1 -1 -0
9 9 9 8 8 8 8 7 7 7 7 6 6 6 4 2 3 5 5 4 3 2 1 0 -0 1 2 4 4 4 5 4 0 1 1 1 0 0
9 9 8 8 7 7 8 7 7 8 8 7 6 5 4 4 5 5 5 4 3 1 1 1 1 2 4 4 4 4 5 1 1 1 1 2 2 1
9 8 8 8 8 7 7 6 6 8 7 6 5 5 4 5 5 5 5 5 6 0 1 3 2 4 5 4 3 3 3 2 2 2 2 2 2 1
8 9 9 9 8 8 7 6 6 6 5 4 5 5 6 5 5 5 5 5 5 1 1 4 3 5 4 4 4 2 3 3 3 3 3 3 2 2
8 8 9 9 8 8 7 7 7 6 5 4 4 5 5 4 4 4 4 3 2 1 2 6 5 6 4 4 3 3 3 3 3 4 3 3 3 2
8 8 9 9 8 7 7 7 7 6 4 2 2 2 3 3 3 3 3 3 4 3 2 4 5 6 5 3 3 4 4 4 4 4 4 3 3 3
9 9 9 8 7 7 6 7 7 6 4 4 3 3 4 4 3 0 1 3 4 5 3 5 4 3 5 3 3 4 4 4 5 5 4 4 4 3
9 9 9 8 7 6 6 7 7 5 4 4 5 5 5 5 4 2 -0 2 4 4 2 3 3 4 5 6 4 4 4 5 5 5 5 4 4 3
9 9 8 8 7 6 6 6 5 5 4 5 5 7 7 5 4 1 0 0 1 3 1 2 4 5 7 6 6 5 4 4 5 5 5 4 5 4
9 8 8 7 6 6 7 7 5 5 5 6 6 7 6 5 3 2 0 0 0 1 1 2 3 4 5 6 6 6 6 6 5 6 5 4 4 4
9 8 8 7 6 7 7 7 6 6 5 6 7 6 5 4 4 2 2 2 2 2 1 2 3 4 6 6 6 6 6 7 6 6 5 4 4 4
9 9 9 8 7 7 7 7 6 6 5 6 6 6 6 5 5 4 2 2 4 4 3 3 4 4 5 5 6 6 6 6 6 6 5 6 5 4
9 10 9 8 8 8 8 8 7 6 5 6 7 6 6 7 6 5 2 3 5 4 5 4 5 5 6 5 5 5 6 6 6 5 6 7 6 5
10 10 9 8 8 8 8 8 7 6 5 6 7 7 6 6 6 6 3 3 4 5 4 4 4 5 6 8 5 7 5 5 6 6 6 6 6 5
10 10 9 8 8 9 8 8 7 6 5 6 7 7 7 7 7 6 4 4 5 5 5 3 3 3 4 6 5 5 8 5 6 6 6 7 6 6
10 9 8 8 8 8 8 7 7 6 5 6 7 8 8 8 8 7 7 4 5 5 6 4 4 4 5 4 6 5 5 9 6 6 7 7 7 6
9 8 8 7 8 8 7 7 6 6 5 6 7 7 7 8 8 8 7 3 4 4 4 5 5 4 5 5 6 6 6 6 9 9 9 9 7 7
9 8 8 8 7 7 7 6 6 6 5 6 7 7 7 8 8 8 8 5 3 3 4 6 5 5 5 4 6 5 6 7 7 8 8 10 9 8